カタログに戻る

STARLINK-34347

運用中通信VLEO
NORAD 64226·PAYLOAD·🇺🇸 United States

打ち上げ May 31, 2025 から Vandenberg Space Force Base

Loading…

次のパス (今後24時間)

TLE

最新Source: CelesTrak SupGP

元期: Sep 15, 2026, 02:53 UTC

1 64226C 25117Z   26258.12062500 -.00035988  00000+0 -10632-2 0  2581
2 64226  53.1579 236.8183 0001345  91.7218 110.4088 15.34411981    14

AllMySatでSTARLINK-34347をリアルタイム追跡

Download on the App Store